Location: Buckeye Ditch
(40.9104°N, 122.9517°W)
Time: 07:15:42
(UTC+00:00)

Cosmos 2112 Rocket - Visible Passes

Search period start: 16 July 2024 00:00
Search period end: 26 July 2024 00:00
Orbit: 755 x 784 km, 74.1° (Epoch: 16 July)

Date Brightness Start Highest point End Pass type
(mag) Time Alt. Az. Time Alt. Az. Time Alt. Az.
16 Jul 4.3 04:37:51 10° NNW 04:43:03 68° WSW 04:48:16 10° S visible
17 Jul 6.5 05:45:33 10° WNW 05:47:54 13° W 05:50:16 10° WSW visible
18 Jul 6.1 05:07:36 10° NW 05:11:38 23° W 05:15:41 10° SSW visible
19 Jul 5.3 04:30:27 10° NW 04:35:17 39° WSW 04:40:08 10° S visible
21 Jul 6.7 05:01:21 10° WNW 05:03:40 13° W 05:05:59 10° WSW visible
22 Jul 6.3 04:23:23 10° NW 04:27:24 23° W 04:31:26 10° SSW visible
25 Jul 6.9 04:17:09 10° WNW 04:19:25 13° W 04:21:42 10° WSW visible
